sat.trackr.live / text

‹ back to catalog

STARLINK-36208

NORAD 67108 · 2025-299G

PAYLOAD ACTIVE UNKNOWN

§ Identity

Operator
Country
US
Launch date
2025-12-15
Launch site
AFETR
Launch vehicle
Mass (kg)
RCS (m²)

Purposes: comms

External: N2YO · Heavens-Above · Gunter

§ Orbital elements

Epoch: 2026-05-25T03:33:35.360352Z

Period
94.27 min
Inclination
42.9983°
Eccentricity
0.0000650
Mean motion
15.27590050 rev/d
Perigee alt
482.6 km
Apogee alt
483.5 km
Semi-major
6,861.2 km
B*
5.5904e-4
RAAN
96.8417°
Arg perigee
216.8003°
Mean anomaly
143.2804°
Rev number
2,481

§ Raw data

STARLINK-362081 67108U 25299G   26145.14832593  .00015158  00000+0  55904-3 0  99972 67108  42.9983  96.8417 0000650 216.8003 143.2804 15.27590050 24816

JSON: /api/v1/satellites/67108 · /tle

For live sub-satellite position, see the globe view (requires WebGL).

§ Visibility from observer

Set your observer location to see the next 7 days of passes ≥ 10°. The values pass through the URL so the page stays shareable.

No JS? Fill the form by hand. The geolocation button needs JavaScript.